星链-30213 (STARLINK-30213 )

导读

STARLINK-30213是美国SpaceX公司星链(Starlink)星座的V1.0批次卫星,于2023年8月7日发射入轨,属于近地轨道通信卫星。 它运行在约550千米高度的近地轨道,搭载Ku/Ka波段通信载荷,采用氪工质霍尔推进器,具备自主避撞能力,属于全球低轨互联网星座组网卫星,旨在为全球提供普惠宽带互联网接入服务,设计服役寿命约5-7年,退役后会主动离轨再入大气层焚毁。

Basic Information
目录编号:
57504
目录名称:
STARLINK-30213
国际标识:
2023-113K
轨道中心:
EARTH
卫星名称:
星链-30213
卫星全名:
星链-30213 (STARLINK-30213 )
卫星状态:
在轨 (已飞行1124 天)
发射日期:
2023-08-07 UTC
国别 :
美国 (US)
星等 :
--
Orbit Information
数据来源 国际轨道数据
星历时间: 2026-09-03T23:00:36+0800
15小时前
查看轨道信息
半长轴: 6861.2km
偏心率: 0.0001052
轨道倾角: 43.004°
近地点辐角 274.311°
升交点赤经 91.555°
平近点角 85.762°
近地点: 482.341km
远地点: 483.785km
周期: 94.267分钟
每日圈数: 15.275754
Detailed Information
固有亮度:
5
最大亮度:
0.3
卫星平台:
Starlink v2.0 mini
覆盖范围:
全球
运营商:
太空探索技术公司
运营商所在国:
美国
制造商(研发单位):
太空探索技术公司
制造商所在国:
美国
使用方式:
暂无
Satellite Introduction
星链(Starlink)计划是由太空探索技术公司(SpaceX)提出的一个巨型低轨卫星互联网星座项目,计划在2019年至2024年间在太空搭建由约1.2万颗卫星组成的“星链”网络,其中1584颗将部署在地球上空550千米处的近地轨道,并从2020年开始工作。该卫星仍在工作。
2D Orbit Map
3D Orbit Map
Orbit Altitude Analysis Chart
Orbit Inclination Analysis Chart
Orbit Comprehensive Analysis Chart
View Comprehensive Chart
Conjunction Data List
Event ID Objects TCA Miss Dist (km) Collision Risk Probability Collision Risk Index (CRI) Action
CDM_260905-050905-750406-384921
2026-09-05T
05:09:39+0000
0.253 km
中距离
4.135948E-4 高风险 0.87
CDM_260828-111605-750406-681122
2026-08-28T
11:16:49+0000
0.514 km
远距离
1.316899E-4 高风险 0.77
CDM_260905-033505-750406-384921
2026-09-05T
03:35:30+0000
1.985 km
极远距离
1.50216E-6 低风险 0.39
CDM_260828-125005-750406-681121
2026-08-28T
12:50:59+0000
2.439 km
极远距离
1.262901E-6 低风险 0.37
CDM_260905-064305-750406-384921
2026-09-05T
06:43:48+0000
2.198 km
极远距离
1.197371E-6 低风险 0.37